W4HSV Weather Reports


Display with metric or nautical units.
time (UTC)temp
F
wind
direction
speed
MPH
gust
MPH
rain 1hr
in
rain 24hr
in
rain mn
in
humidity
%
barometer
mb
20260503210319 70 320 6.0 12.0 0.00 0.00 0.00 37 1017.7
20260503210227 70 254 7.0 15.0 0.00 0.00 0.00 36 1017.7
20260503210119 70 290 7.0 15.0 0.00 0.00 0.00 36 1017.5
20260503210047 70 313 7.0 15.0 0.00 0.00 0.00 35 1017.5
20260503205933 70 302 5.0 15.0 0.00 0.00 0.00 37 1017.6
20260503205820 70 315 5.0 15.0 0.00 0.00 0.00 36 1017.6
20260503205727 70 275 6.0 15.0 0.00 0.00 0.00 39 1017.6
20260503205614 70 265 8.0 15.0 0.00 0.00 0.00 36 1017.6
20260503205525 70 254 9.0 15.0 0.00 0.00 0.00 36 1017.6
20260503205434 70 298 10.0 15.0 0.00 0.00 0.00 36 1017.6
20260503205321 70 321 7.0 13.0 0.00 0.00 0.00 37 1017.6
20260503205209 70 313 5.0 11.0 0.00 0.00 0.00 39 1017.6
20260503205116 70 284 6.0 11.0 0.00 0.00 0.00 37 1017.6
20260503205051 70 304 6.0 11.0 0.00 0.00 0.00 36 1017.6
20260503204825 70 305 7.0 11.0 0.00 0.00 0.00 38 1017.6
20260503204713 70 277 5.0 10.0 0.00 0.00 0.00 38 1017.6
20260503204621 70 214 4.0 10.0 0.00 0.00 0.00 37 1017.6
20260503204509 70 209 2.0 10.0 0.00 0.00 0.00 39 1017.7
20260503204417 70 192 3.0 10.0 0.00 0.00 0.00 38 1017.7
20260503204348 70 299 5.0 10.0 0.00 0.00 0.00 37 1017.7
20260503204213 70 307 5.0 10.0 0.00 0.00 0.00 38 1017.7
20260503204121 70 316 5.0 10.0 0.00 0.00 0.00 38 1017.7
20260503204028 70 291 6.0 10.0 0.00 0.00 0.00 38 1017.8
20260503203914 70 291 6.0 10.0 0.00 0.00 0.00 38 1017.8
20260503203822 70 306 5.0 10.0 0.00 0.00 0.00 37 1017.8
20260503203733 70 256 4.0 10.0 0.00 0.00 0.00 37 1017.8
20260503203620 70 227 4.0 10.0 0.00 0.00 0.00 37 1017.8
20260503203550 70 279 4.0 12.0 0.00 0.00 0.00 37 1017.7
20260503203344 70 296 6.0 12.0 0.00 0.00 0.00 38 1017.8
20260503203230 70 314 5.0 13.0 0.00 0.00 0.00 38 1017.9
20260503203120 70 360 3.0 13.0 0.00 0.00 0.00 37 1017.9
20260503203049 70 277 5.0 13.0 0.00 0.00 0.00 36 1017.9
20260503202914 70 292 6.0 13.0 0.00 0.00 0.00 37 1018.0
20260503202820 70 285 6.0 13.0 0.00 0.00 0.00 38 1018.0
20260503202729 70 232 8.0 13.0 0.00 0.00 0.00 37 1018.0
20260503202616 70 248 9.0 13.0 0.00 0.00 0.00 38 1018.0
20260503202528 69 277 8.0 13.0 0.00 0.00 0.00 37 1018.0
20260503202415 69 5 7.0 13.0 0.00 0.00 0.00 39 1018.0
20260503202322 69 269 5.0 10.0 0.00 0.00 0.00 40 1018.0
20260503202210 69 163 5.0 10.0 0.00 0.00 0.00 40 1018.1
20260503202137 69 256 4.0 10.0 0.00 0.00 0.00 37 1018.1
20260503202111 69 207 5.0 10.0 0.00 0.00 0.00 37 1018.0
20260503201823 69 294 4.0 11.0 0.00 0.00 0.00 40 1018.1
20260503201731 69 256 3.0 11.0 0.00 0.00 0.00 40 1018.1
20260503201617 69 208 4.0 11.0 0.00 0.00 0.00 40 1018.2
20260503201545 69 193 5.0 11.0 0.00 0.00 0.00 39 1018.2
20260503201411 69 243 7.0 11.0 0.00 0.00 0.00 40 1018.2
20260503201340 69 175 7.0 11.0 0.00 0.00 0.00 41 1018.2
20260503201209 69 311 4.0 10.0 0.00 0.00 0.00 41 1018.2
20260503201116 69 296 2.0 8.0 0.00 0.00 0.00 39 1018.2
20260503201024 69 303 3.0 8.0 0.00 0.00 0.00 39 1018.2
20260503200909 69 297 3.0 8.0 0.00 0.00 0.00 41 1018.3
20260503200837 69 311 2.0 10.0 0.00 0.00 0.00 39 1018.3
20260503200709 69 255 3.0 12.0 0.00 0.00 0.00 41 1018.4
20260503200616 69 257 4.0 12.0 0.00 0.00 0.00 40 1018.4
20260503200547 69 281 5.0 12.0 0.00 0.00 0.00 40 1018.4
20260503200320 69 290 5.0 12.0 0.00 0.00 0.00 41 1018.5
20260503200248 69 305 4.0 12.0 0.00 0.00 0.00 40 1018.5
20260503200119 69 281 6.0 12.0 0.00 0.00 0.00 42 1018.5
20260503200046 68 309 7.0 12.0 0.00 0.00 0.00 40 1018.5
20260503195933 68 281 7.0 12.0 0.00 0.00 0.00 42 1018.5
20260503195818 68 294 7.0 12.0 0.00 0.00 0.00 42 1018.5
20260503195726 68 265 7.0 12.0 0.00 0.00 0.00 40 1018.5
20260503195613 68 274 5.0 12.0 0.00 0.00 0.00 42 1018.6
20260503195521 68 281 4.0 12.0 0.00 0.00 0.00 42 1018.6
20260503195433 68 249 3.0 12.0 0.00 0.00 0.00 44 1018.6
20260503195340 68 236 4.0 12.0 0.00 0.00 0.00 43 1018.6
20260503195227 68 294 5.0 12.0 0.00 0.00 0.00 41 1018.7
20260503195115 68 232 5.0 12.0 0.00 0.00 0.00 42 1018.6
20260503195046 68 231 4.0 12.0 0.00 0.00 0.00 42 1018.6
20260503194823 68 311 5.0 12.0 0.00 0.00 0.00 41 1018.7
20260503194711 68 205 6.0 12.0 0.00 0.00 0.00 42 1018.7
20260503194617 68 248 6.0 12.0 0.00 0.00 0.00 42 1018.7
20260503194525 68 215 7.0 12.0 0.00 0.00 0.00 44 1018.7
20260503194412 68 289 5.0 12.0 0.00 0.00 0.00 42 1018.8
20260503194340 68 275 3.0 10.0 0.00 0.00 0.00 42 1018.8
20260503194211 68 186 5.0 10.0 0.00 0.00 0.00 40 1018.8
20260503194118 68 212 8.0 10.0 0.00 0.00 0.00 39 1018.9
20260503194026 68 182 7.0 10.0 0.00 0.00 0.00 39 1018.9
20260503193915 68 115 7.0 10.0 0.00 0.00 0.00 41 1018.9
20260503193842 68 188 5.0 15.0 0.00 0.00 0.00 39 1018.9
20260503193748 68 208 5.0 15.0 0.00 0.00 0.00 39 1018.9
20260503193620 68 240 6.0 15.0 0.00 0.00 0.00 41 1018.9
20260503193549 68 278 6.0 15.0 0.00 0.00 0.00 43 1018.9
20260503193323 68 261 7.0 15.0 0.00 0.00 0.00 44 1019.0
20260503193210 68 282 8.0 15.0 0.00 0.00 0.00 45 1019.0
20260503193116 68 269 8.0 15.0 0.00 0.00 0.00 43 1019.0
20260503193028 68 287 8.0 15.0 0.00 0.00 0.00 44 1019.0
20260503192916 68 269 4.0 11.0 0.00 0.00 0.00 43 1019.1
20260503192823 68 269 4.0 11.0 0.00 0.00 0.00 42 1019.1
20260503192711 68 257 5.0 11.0 0.00 0.00 0.00 42 1019.1
20260503192617 68 196 5.0 14.0 0.00 0.00 0.00 43 1019.1
20260503192509 68 213 5.0 14.0 0.00 0.00 0.00 43 1019.1
20260503192416 68 231 7.0 14.0 0.00 0.00 0.00 43 1019.1
20260503192325 68 227 8.0 14.0 0.00 0.00 0.00 43 1019.1
20260503192212 68 196 6.0 14.0 0.00 0.00 0.00 43 1019.2
20260503192140 68 212 6.0 14.0 0.00 0.00 0.00 44 1019.1
20260503192052 68 225 6.0 14.0 0.00 0.00 0.00 44 1019.1
20260503191825 68 298 5.0 14.0 0.00 0.00 0.00 45 1019.2
20260503191713 67 187 3.0 10.0 0.00 0.00 0.00 45 1019.2
20260503191622 67 252 4.0 10.0 0.00 0.00 0.00 46 1019.2
20260503191509 67 234 6.0 10.0 0.00 0.00 0.00 43 1019.4
20260503191436 67 201 6.0 10.0 0.00 0.00 0.00 43 1019.3
20260503191328 68 197 6.0 11.0 0.00 0.00 0.00 44 1019.3
20260503191215 68 196 7.0 11.0 0.00 0.00 0.00 43 1019.4
20260503191122 68 190 7.0 11.0 0.00 0.00 0.00 44 1019.4
20260503191010 68 215 6.0 12.0 0.00 0.00 0.00 43 1019.4
20260503190918 68 216 5.0 12.0 0.00 0.00 0.00 45 1019.5
20260503190825 68 236 6.0 12.0 0.00 0.00 0.00 45 1019.5
20260503190715 68 325 5.0 12.0 0.00 0.00 0.00 46 1019.4
20260503190641 68 249 5.0 12.0 0.00 0.00 0.00 48 1019.4
20260503190550 68 273 4.0 12.0 0.00 0.00 0.00 45 1019.5
20260503190325 68 237 6.0 12.0 0.00 0.00 0.00 45 1019.5
20260503190217 68 197 5.0 13.0 0.00 0.00 0.00 46 1019.5
20260503190145 68 173 5.0 12.0 0.00 0.00 0.00 47 1019.5
20260503190030 68 272 7.0 12.0 0.00 0.00 0.00 49 1019.6
20260503185938 68 155 7.0 12.0 0.00 0.00 0.00 48 1019.5
20260503185825 68 192 6.0 12.0 0.00 0.00 0.00 45 1019.5
20260503185734 68 217 4.0 11.0 0.00 0.00 0.00 45 1019.5
20260503185621 68 162 5.0 11.0 0.00 0.00 0.00 46 1019.5
20260503185547 68 201 6.0 11.0 0.00 0.00 0.00 45 1019.5
20260503185416 68 266 6.0 11.0 0.00 0.00 0.00 47 1019.6
20260503185323 68 151 5.0 9.0 0.00 0.00 0.00 46 1019.6
20260503185230 68 180 5.0 9.0 0.00 0.00 0.00 45 1019.6
20260503185116 68 293 4.0 9.0 0.00 0.00 0.00 46 1019.6
20260503185047 67 296 3.0 9.0 0.00 0.00 0.00 46 1019.6
20260503184841 67 355 4.0 9.0 0.00 0.00 0.00 46 1019.6
20260503184710 67 333 5.0 9.0 0.00 0.00 0.00 45 1019.5
20260503184618 67 264 4.0 9.0 0.00 0.00 0.00 45 1019.6
20260503184546 67 278 2.0 10.0 0.00 0.00 0.00 47 1019.6
20260503184432 67 186 2.0 10.0 0.00 0.00 0.00 42 1019.6
20260503184341 67 211 2.0 10.0 0.00 0.00 0.00 46 1019.6
20260503184227 67 342 2.0 10.0 0.00 0.00 0.00 44 1019.6
20260503184118 67 281 1.0 10.0 0.00 0.00 0.00 42 1019.6
20260503184025 67 333 2.0 10.0 0.00 0.00 0.00 42 1019.6
20260503183913 67 333 4.0 10.0 0.00 0.00 0.00 44 1019.7
20260503183821 67 319 5.0 10.0 0.00 0.00 0.00 43 1019.7
20260503183727 67 299 5.0 10.0 0.00 0.00 0.00 43 1019.7
20260503183654 67 286 3.0 10.0 0.00 0.00 0.00 43 1019.7
20260503183609 67 312 2.0 12.0 0.00 0.00 0.00 44 1019.7
20260503183321 67 311 2.0 12.0 0.00 0.00 0.00 45 1019.7
20260503183228 67 355 3.0 12.0 0.00 0.00 0.00 44 1019.7
20260503183115 67 325 6.0 12.0 0.00 0.00 0.00 44 1019.8
20260503183023 67 314 7.0 12.0 0.00 0.00 0.00 44 1019.8
20260503182917 67 318 6.0 12.0 0.00 0.00 0.00 45 1019.8
20260503182824 67 302 5.0 12.0 0.00 0.00 0.00 46 1019.8
20260503182710 67 271 7.0 12.0 0.00 0.00 0.00 46 1019.8
20260503182618 67 293 7.0 12.0 0.00 0.00 0.00 46 1019.8
20260503182527 66 297 6.0 12.0 0.00 0.00 0.00 48 1019.8
20260503182435 66 221 7.0 12.0 0.00 0.00 0.00 47 1019.9
20260503182325 66 278 7.0 12.0 0.00 0.00 0.00 47 1019.9
20260503182213 66 286 3.0 10.0 0.00 0.00 0.00 48 1019.8
20260503182120 66 326 3.0 10.0 0.00 0.00 0.00 49 1019.8
20260503182051 66 287 4.0 10.0 0.00 0.00 0.00 46 1019.8
20260503181844 66 240 7.0 10.0 0.00 0.00 0.00 47 1019.8
20260503181713 66 211 6.0 13.0 0.00 0.00 0.00 48 1019.9
20260503181620 66 217 4.0 13.0 0.00 0.00 0.00 48 1019.9
20260503181528 66 243 2.0 13.0 0.00 0.00 0.00 47 1019.8
20260503181416 66 315 3.0 13.0 0.00 0.00 0.00 47 1019.9
20260503181324 66 321 3.0 13.0 0.00 0.00 0.00 48 1019.9
20260503181216 66 336 5.0 13.0 0.00 0.00 0.00 46 1019.8
20260503181124 66 312 6.0 13.0 0.00 0.00 0.00 47 1019.8
20260503181010 65 306 6.0 13.0 0.00 0.00 0.00 48 1019.9
20260503180919 65 279 3.0 13.0 0.00 0.00 0.00 46 1019.9
20260503180825 65 195 2.0 5.0 0.00 0.00 0.00 44 1019.9
20260503180734 65 234 2.0 5.0 0.00 0.00 0.00 45 1019.9
20260503180640 65 271 2.0 8.0 0.00 0.00 0.00 45 1019.9
20260503180554 65 101 1.0 8.0 0.00 0.00 0.00 45 1019.9
20260503180327 66 88 0.0 10.0 0.00 0.00 0.00 45 1020.0
20260503180214 66 252 1.0 10.0 0.00 0.00 0.00 46 1020.1
20260503180141 66 252 3.0 10.0 0.00 0.00 0.00 47 1020.1
20260503180011 66 256 3.0 14.0 0.00 0.00 0.00 46 1020.0
20260503175919 66 209 3.0 14.0 0.00 0.00 0.00 45 1020.0
20260503175826 66 284 3.0 14.0 0.00 0.00 0.00 46 1020.1
20260503175713 66 292 4.0 14.0 0.00 0.00 0.00 45 1020.0
20260503175621 66 165 6.0 14.0 0.00 0.00 0.00 46 1020.0
20260503175509 66 286 7.0 14.0 0.00 0.00 0.00 48 1020.0
20260503175422 66 295 6.0 14.0 0.00 0.00 0.00 47 1020.0
20260503175309 66 245 7.0 14.0 0.00 0.00 0.00 46 1020.0
20260503175218 66 258 6.0 14.0 0.00 0.00 0.00 46 1020.1
20260503175144 66 261 5.0 14.0 0.00 0.00 0.00 46 1020.1
20260503175114 66 200 5.0 13.0 0.00 0.00 0.00 44 1020.1
20260503174811 66 224 3.0 11.0 0.00 0.00 0.00 47 1020.2
20260503174717 65 219 2.0 11.0 0.00 0.00 0.00 49 1020.1
20260503174625 65 355 3.0 11.0 0.00 0.00 0.00 49 1020.1
20260503174513 65 355 5.0 11.0 0.00 0.00 0.00 48 1020.1
20260503174420 65 321 6.0 11.0 0.00 0.00 0.00 46 1020.1
20260503174312 65 279 5.0 11.0 0.00 0.00 0.00 47 1020.2
20260503174219 65 234 5.0 9.0 0.00 0.00 0.00 47 1020.2
20260503174127 65 183 5.0 9.0 0.00 0.00 0.00 46 1020.2
20260503174013 66 162 4.0 10.0 0.00 0.00 0.00 46 1020.2
20260503173922 66 269 5.0 10.0 0.00 0.00 0.00 47 1020.2
20260503173814 65 234 6.0 10.0 0.00 0.00 0.00 47 1020.3
20260503173722 65 267 5.0 10.0 0.00 0.00 0.00 48 1020.3
20260503173629 65 261 5.0 9.0 0.00 0.00 0.00 50 1020.3
20260503173559 65 274 5.0 8.0 0.00 0.00 0.00 47 1020.2
20260503173313 65 219 4.0 8.0 0.00 0.00 0.00 49 1020.3
20260503173226 65 213 3.0 8.0 0.00 0.00 0.00 49 1020.3
20260503173115 65 306 3.0 8.0 0.00 0.00 0.00 47 1020.3
20260503173023 65 315 2.0 8.0 0.00 0.00 0.00 47 1020.3
20260503172930 65 280 2.0 8.0 0.00 0.00 0.00 46 1020.4
20260503172816 65 195 2.0 8.0 0.00 0.00 0.00 46 1020.4
20260503172724 65 182 2.0 8.0 0.00 0.00 0.00 47 1020.4
20260503172615 65 211 4.0 8.0 0.00 0.00 0.00 49 1020.5
20260503172524 65 317 5.0 8.0 0.00 0.00 0.00 48 1020.5
20260503172412 65 323 3.0 9.0 0.00 0.00 0.00 50 1020.5
20260503172339 65 321 3.0 9.0 0.00 0.00 0.00 50 1020.5
20260503172226 65 280 3.0 9.0 0.00 0.00 0.00 49 1020.5
20260503172134 65 55 2.0 9.0 0.00 0.00 0.00 46 1020.5
20260503172108 65 16 3.0 9.0 0.00 0.00 0.00 48 1020.6
20260503171821 65 292 4.0 9.0 0.00 0.00 0.00 48 1020.6
20260503171709 65 290 5.0 9.0 0.00 0.00 0.00 49 1020.7
20260503171635 65 296 4.0 9.0 0.00 0.00 0.00 48 1020.7
20260503171522 65 242 4.0 9.0 0.00 0.00 0.00 49 1020.7
20260503171414 65 5 3.0 8.0 0.00 0.00 0.00 50 1020.6
20260503171322 65 14 2.0 8.0 0.00 0.00 0.00 47 1020.6
20260503171209 65 22 3.0 8.0 0.00 0.00 0.00 47 1020.6
20260503171117 65 277 5.0 8.0 0.00 0.00 0.00 48 1020.7
20260503171044 65 290 4.0 8.0 0.00 0.00 0.00 48 1020.7
20260503170914 65 271 3.0 9.0 0.00 0.00 0.00 47 1020.6
20260503170822 65 277 4.0 9.0 0.00 0.00 0.00 48 1020.6
20260503170730 65 279 4.0 9.0 0.00 0.00 0.00 49 1020.7
20260503170617 65 266 2.0 9.0 0.00 0.00 0.00 46 1020.7
20260503170548 65 285 2.0 9.0 0.00 0.00 0.00 46 1020.7
20260503170325 65 335 4.0 9.0 0.00 0.00 0.00 46 1020.7
20260503170234 65 273 5.0 9.0 0.00 0.00 0.00 48 1020.8
20260503170120 65 312 5.0 8.0 0.00 0.00 0.00 48 1020.8
20260503160217 61 121 3.0 8.0 0.00 0.00 0.00 54 1021.1
20260503160125 61 107 2.0 7.0 0.00 0.00 0.00 52 1021.1
20260503150928 60 230 1.0 4.0 0.00 0.00 0.00 58 1021.3
20260503150816 60 189 1.0 4.0 0.00 0.00 0.00 57 1021.3
20260503150723 60 28 1.0 5.0 0.00 0.00 0.00 57 1021.3
20260503150614 60 28 2.0 5.0 0.00 0.00 0.00 58 1021.3
20260503150546 60 5 2.0 5.0 0.00 0.00 0.00 55 1021.3
20260503150320 60 350 2.0 5.0 0.00 0.00 0.00 56 1021.3
20260503150226 60 350 2.0 5.0 0.00 0.00 0.00 55 1021.3
20260503150118 60 37 2.0 5.0 0.00 0.00 0.00 56 1021.3
20260503140223 57 170 1.0 5.0 0.00 0.00 0.00 71 1021.2
20260503140110 57 333 1.0 5.0 0.00 0.00 0.00 73 1021.2
20260503131319 53 318 1.0 4.0 0.00 0.00 0.00 79 1020.9
20260503131226 53 42 1.0 4.0 0.00 0.00 0.00 79 1021.0
20260503131114 53 91 1.0 4.0 0.00 0.00 0.00 80 1021.0
20260503131042 53 73 0.0 4.0 0.00 0.00 0.00 79 1021.0
20260503130908 53 78 1.0 4.0 0.00 0.00 0.00 80 1021.0
20260503130816 52 72 2.0 4.0 0.00 0.00 0.00 80 1021.0
20260503130728 52 355 3.0 4.0 0.00 0.00 0.00 81 1021.0
20260503130635 52 36 3.0 4.0 0.00 0.00 0.00 81 1021.0
20260503130606 52 24 3.0 4.0 0.00 0.00 0.00 81 1021.0
20260503130318 52 44 2.0 4.0 0.00 0.00 0.00 82 1021.0
20260503130225 52 23 1.0 4.0 0.00 0.00 0.00 82 1021.0
20260503130117 52 67 1.0 4.0 0.00 0.00 0.00 82 1021.0
20260503120210 44 338 1.0 2.0 0.00 0.00 0.00 93 1020.6
20260503120119 44 347 0.0 2.0 0.00 0.00 0.00 93 1020.6
20260503110815 43 337 2.0 3.0 0.00 0.00 0.00 91 1019.9
20260503110742 43 333 1.0 3.0 0.00 0.00 0.00 91 1019.9
20260503110629 43 333 0.0 2.0 0.00 0.00 0.00 91 1019.9
20260503110559 43 326 0.0 0.0 0.00 0.00 0.00 91 1020.0
20260503110311 43 338 0.0 0.0 0.00 0.00 0.00 91 1019.9
20260503110217 43 338 0.0 0.0 0.00 0.00 0.00 91 1019.9
20260503110109 43 338 0.0 0.0 0.00 0.00 0.00 91 1019.9
20260503100225 44 360 1.0 5.0 0.00 0.00 0.00 91 1019.5
20260503100112 44 360 0.0 5.0 0.00 0.00 0.00 91 1019.6
20260503090347 45 26 2.0 6.0 0.00 0.00 0.00 90 1019.2
20260503090211 45 13 3.0 6.0 0.00 0.00 0.00 90 1019.2
20260503090119 45 16 3.0 6.0 0.00 0.00 0.00 90 1019.2
20260503081527 45 355 2.0 5.0 0.00 0.00 0.00 88 1019.3
20260503081414 45 355 2.0 5.0 0.00 0.00 0.00 88 1019.3
20260503081341 45 348 3.0 5.0 0.00 0.00 0.00 88 1019.3
20260503081228 46 342 3.0 5.0 0.00 0.00 0.00 88 1019.4
20260503081116 45 344 3.0 5.0 0.00 0.00 0.00 88 1019.3
20260503081027 46 348 3.0 5.0 0.00 0.00 0.00 88 1019.3
20260503080934 46 340 2.0 5.0 0.00 0.00 0.00 88 1019.3
20260503080821 46 349 3.0 5.0 0.00 0.00 0.00 88 1019.3
20260503080728 46 355 3.0 5.0 0.00 0.00 0.00 88 1019.2
20260503080635 46 340 3.0 5.0 0.00 0.00 0.00 88 1019.2
20260503080610 46 344 3.0 5.0 0.00 0.00 0.00 88 1019.3
20260503080343 46 348 3.0 5.0 0.00 0.00 0.00 88 1019.2
20260503080209 46 336 3.0 5.0 0.00 0.00 0.00 88 1019.2
20260503080117 46 346 3.0 5.0 0.00 0.00 0.00 88 1019.1
20260503072914 46 343 2.0 4.0 0.00 0.00 0.00 87 1018.8
20260503072825 46 350 2.0 4.0 0.00 0.00 0.00 86 1018.8
20260503072733 46 355 1.0 3.0 0.00 0.00 0.00 86 1018.9
20260503072619 46 344 1.0 3.0 0.00 0.00 0.00 86 1018.9
20260503072528 46 347 1.0 3.0 0.00 0.00 0.00 86 1018.8
20260503072416 47 347 2.0 3.0 0.00 0.00 0.00 86 1018.8
20260503072324 47 355 2.0 3.0 0.00 0.00 0.00 86 1018.8
20260503072215 47 360 1.0 3.0 0.00 0.00 0.00 86 1018.7
20260503072141 47 5 1.0 2.0 0.00 0.00 0.00 86 1018.7
20260503072112 47 21 0.0 2.0 0.00 0.00 0.00 86 1018.7
20260503071824 47 5 0.0 2.0 0.00 0.00 0.00 86 1018.7
20260503071715 47 5 0.0 2.0 0.00 0.00 0.00 86 1018.6
20260503071643 47 5 0.0 2.0 0.00 0.00 0.00 86 1018.6
20260503071509 47 355 0.0 3.0 0.00 0.00 0.00 86 1018.7
20260503071415 47 355 0.0 3.0 0.00 0.00 0.00 86 1018.7
20260503071323 47 346 0.0 3.0 0.00 0.00 0.00 86 1018.7
20260503071211 47 346 1.0 3.0 0.00 0.00 0.00 86 1018.7
20260503071123 47 341 1.0 3.0 0.00 0.00 0.00 85 1018.7
20260503071030 47 341 1.0 3.0 0.00 0.00 0.00 85 1018.7
20260503070918 47 360 1.0 3.0 0.00 0.00 0.00 85 1018.7
20260503070825 47 360 1.0 3.0 0.00 0.00 0.00 85 1018.7
20260503070713 47 360 1.0 4.0 0.00 0.00 0.00 85 1018.7
20260503070554 47 350 1.0 6.0 0.00 0.00 0.00 85 1018.7
20260503070328 47 348 0.0 6.0 0.00 0.00 0.00 85 1018.7
20260503070215 47 342 1.0 6.0 0.00 0.00 0.00 85 1018.7
20260503070119 47 342 1.0 6.0 0.00 0.00 0.00 85 1018.7
20260503060328 49 329 4.0 6.0 0.00 0.00 0.00 82 1018.4
20260503060220 49 13 4.0 6.0 0.00 0.00 0.00 82 1018.5
20260503060146 49 355 3.0 6.0 0.00 0.00 0.00 82 1018.5
20260503055121 49 5 3.0 8.0 0.00 0.00 0.00 81 1018.5
20260503054813 49 341 5.0 8.0 0.00 0.00 0.00 81 1018.4
20260503054739 49 17 5.0 8.0 0.00 0.00 0.00 81 1018.4
20260503054627 49 18 5.0 8.0 0.00 0.00 0.00 81 1018.5
20260503054517 49 19 3.0 8.0 0.00 0.00 0.00 81 1018.4
20260503054424 49 19 3.0 5.0 0.00 0.00 0.00 81 1018.4
20260503054310 49 19 4.0 6.0 0.00 0.00 0.00 80 1018.4
20260503054218 49 5 3.0 6.0 0.00 0.00 0.00 80 1018.4
20260503054126 49 12 3.0 6.0 0.00 0.00 0.00 80 1018.4
20260503054012 49 15 2.0 6.0 0.00 0.00 0.00 80 1018.4
20260503053939 49 360 2.0 6.0 0.00 0.00 0.00 80 1018.4
20260503053809 49 360 2.0 6.0 0.00 0.00 0.00 80 1018.4
20260503053715 49 360 3.0 6.0 0.00 0.00 0.00 80 1018.4
20260503053643 49 346 3.0 6.0 0.00 0.00 0.00 80 1018.4
20260503053552 49 334 4.0 6.0 0.00 0.00 0.00 80 1018.4
20260503053324 49 360 4.0 6.0 0.00 0.00 0.00 80 1018.3
20260503053216 49 5 4.0 6.0 0.00 0.00 0.00 80 1018.3
20260503053144 49 5 3.0 6.0 0.00 0.00 0.00 80 1018.3
20260503053010 49 5 3.0 6.0 0.00 0.00 0.00 80 1018.3
20260503052917 49 5 4.0 6.0 0.00 0.00 0.00 80 1018.4
20260503052825 49 17 4.0 6.0 0.00 0.00 0.00 80 1018.4
20260503052717 49 5 4.0 6.0 0.00 0.00 0.00 80 1018.4
20260503052645 49 5 4.0 6.0 0.00 0.00 0.00 80 1018.4
20260503052512 49 5 4.0 6.0 0.00 0.00 0.00 80 1018.4
20260503052420 49 355 3.0 6.0 0.00 0.00 0.00 80 1018.4
20260503052328 50 355 3.0 6.0 0.00 0.00 0.00 80 1018.4
20260503052215 50 5 3.0 6.0 0.00 0.00 0.00 79 1018.4
20260503052126 50 12 3.0 7.0 0.00 0.00 0.00 79 1018.4
20260503052058 50 5 3.0 7.0 0.00 0.00 0.00 79 1018.4
20260503051831 50 5 2.0 5.0 0.00 0.00 0.00 79 1018.3
20260503051716 50 19 2.0 5.0 0.00 0.00 0.00 79 1018.3
20260503051624 50 5 2.0 5.0 0.00 0.00 0.00 79 1018.3
20260503051535 50 5 2.0 5.0 0.00 0.00 0.00 79 1018.3
20260503051421 50 9 3.0 5.0 0.00 0.00 0.00 79 1018.3
20260503051309 50 355 3.0 5.0 0.00 0.00 0.00 78 1018.3
20260503051216 50 346 3.0 5.0 0.00 0.00 0.00 78 1018.3
20260503051123 50 5 2.0 5.0 0.00 0.00 0.00 78 1018.3
20260503051010 50 339 2.0 5.0 0.00 0.00 0.00 78 1018.2
20260503050921 50 339 2.0 5.0 0.00 0.00 0.00 78 1018.2
20260503050809 50 5 3.0 5.0 0.00 0.00 0.00 78 1018.2
20260503050718 50 34 3.0 5.0 0.00 0.00 0.00 78 1018.3
20260503050625 50 5 3.0 4.0 0.00 0.00 0.00 78 1018.3
20260503050559 50 20 3.0 4.0 0.00 0.00 0.00 77 1018.2
20260503050313 50 17 3.0 4.0 0.00 0.00 0.00 77 1018.2
20260503050242 50 355 2.0 4.0 0.00 0.00 0.00 77 1018.2
20260503050126 50 325 2.0 5.0 0.00 0.00 0.00 77 1018.2
20260503050033 50 360 3.0 5.0 0.00 0.00 0.00 77 1018.2
20260503045941 50 26 3.0 5.0 0.00 0.00 0.00 77 1018.2
20260503045826 50 5 3.0 5.0 0.00 0.00 0.00 77 1018.2
20260503045719 50 355 3.0 5.0 0.00 0.00 0.00 77 1018.2
20260503045627 50 30 3.0 5.0 0.00 0.00 0.00 77 1018.2
20260503045514 50 10 2.0 5.0 0.00 0.00 0.00 77 1018.2
20260503045421 50 355 2.0 5.0 0.00 0.00 0.00 77 1018.2
20260503045327 50 349 3.0 5.0 0.00 0.00 0.00 76 1018.2
20260503045220 50 336 3.0 5.0 0.00 0.00 0.00 76 1018.2
20260503045147 50 337 3.0 5.0 0.00 0.00 0.00 76 1018.2
20260503045057 50 343 2.0 4.0 0.00 0.00 0.00 76 1018.2
20260503044829 50 336 2.0 4.0 0.00 0.00 0.00 76 1018.1
20260503044713 51 355 3.0 4.0 0.00 0.00 0.00 76 1018.2
20260503044624 51 348 3.0 4.0 0.00 0.00 0.00 76 1018.2
20260503044511 51 355 3.0 6.0 0.00 0.00 0.00 76 1018.2
20260503044419 51 5 3.0 6.0 0.00 0.00 0.00 75 1018.2
20260503044345 51 344 3.0 6.0 0.00 0.00 0.00 75 1018.2
20260503044232 51 18 2.0 6.0 0.00 0.00 0.00 75 1018.2
20260503044120 51 347 2.0 6.0 0.00 0.00 0.00 75 1018.2
20260503044011 51 355 2.0 6.0 0.00 0.00 0.00 75 1018.1
20260503043939 51 355 3.0 6.0 0.00 0.00 0.00 75 1018.2
20260503043825 51 321 3.0 6.0 0.00 0.00 0.00 75 1018.2
20260503043713 51 346 3.0 6.0 0.00 0.00 0.00 75 1018.2
20260503043620 51 338 3.0 4.0 0.00 0.00 0.00 74 1018.2
20260503043554 51 348 3.0 4.0 0.00 0.00 0.00 74 1018.2
20260503043327 51 344 2.0 3.0 0.00 0.00 0.00 74 1018.1
20260503043214 51 5 2.0 3.0 0.00 0.00 0.00 74 1018.1
20260503043123 51 355 2.0 3.0 0.00 0.00 0.00 74 1018.1
20260503043030 51 349 2.0 4.0 0.00 0.00 0.00 74 1018.1
20260503042937 51 349 2.0 4.0 0.00 0.00 0.00 74 1018.1
20260503042843 51 339 2.0 4.0 0.00 0.00 0.00 74 1018.1
20260503042712 51 321 2.0 4.0 0.00 0.00 0.00 74 1018.1
20260503042621 51 355 2.0 4.0 0.00 0.00 0.00 74 1018.1
20260503042508 51 355 2.0 6.0 0.00 0.00 0.00 74 1018.1
20260503042415 51 360 2.0 6.0 0.00 0.00 0.00 74 1018.0
20260503042324 51 336 3.0 6.0 0.00 0.00 0.00 74 1018.0
20260503042231 51 355 3.0 6.0 0.00 0.00 0.00 74 1018.1
20260503042121 51 360 2.0 6.0 0.00 0.00 0.00 74 1018.1
20260503042051 51 355 2.0 6.0 0.00 0.00 0.00 73 1018.0
20260503041824 52 360 3.0 6.0 0.00 0.00 0.00 73 1018.0
20260503041711 52 11 3.0 6.0 0.00 0.00 0.00 73 1018.1
20260503041622 52 339 3.0 6.0 0.00 0.00 0.00 73 1018.1
20260503041509 52 351 3.0 4.0 0.00 0.00 0.00 73 1018.0
20260503041416 52 360 3.0 5.0 0.00 0.00 0.00 73 1018.1
20260503041323 52 15 3.0 5.0 0.00 0.00 0.00 73 1018.1
20260503041211 52 11 3.0 5.0 0.00 0.00 0.00 73 1018.1
20260503041118 52 5 3.0 5.0 0.00 0.00 0.00 73 1018.0
20260503041010 52 348 3.0 5.0 0.00 0.00 0.00 73 1018.0
20260503040919 52 349 3.0 5.0 0.00 0.00 0.00 73 1018.0
20260503040826 52 344 3.0 5.0 0.00 0.00 0.00 72 1018.0
20260503040713 52 355 3.0 5.0 0.00 0.00 0.00 72 1018.0
20260503040556 52 360 3.0 5.0 0.00 0.00 0.00 72 1018.0
20260503040309 52 360 3.0 5.0 0.00 0.00 0.00 72 1018.0
20260503040216 52 347 2.0 5.0 0.00 0.00 0.00 72 1017.9
20260503040122 52 338 2.0 5.0 0.00 0.00 0.00 72 1017.9
20260503040014 52 351 2.0 5.0 0.00 0.00 0.00 72 1018.0
20260503035921 52 340 2.0 5.0 0.00 0.00 0.00 72 1018.0
20260503035809 52 343 3.0 5.0 0.00 0.00 0.00 71 1017.9
20260503035716 52 360 3.0 5.0 0.00 0.00 0.00 71 1017.9
20260503035624 52 9 3.0 4.0 0.00 0.00 0.00 71 1017.9
20260503035510 52 11 2.0 4.0 0.00 0.00 0.00 71 1017.9
20260503035421 52 347 2.0 4.0 0.00 0.00 0.00 71 1017.9
20260503035328 52 5 2.0 4.0 0.00 0.00 0.00 71 1018.0
20260503035215 53 344 2.0 4.0 0.00 0.00 0.00 71 1017.9
20260503035144 53 351 2.0 4.0 0.00 0.00 0.00 71 1017.9
20260503035053 53 351 2.0 4.0 0.00 0.00 0.00 71 1017.9
20260503034810 53 355 3.0 5.0 0.00 0.00 0.00 71 1017.9
20260503034718 53 346 3.0 6.0 0.00 0.00 0.00 71 1017.9
20260503034625 53 326 3.0 6.0 0.00 0.00 0.00 70 1017.9
20260503034513 53 333 3.0 6.0 0.00 0.00 0.00 70 1017.9
20260503034419 53 346 3.0 6.0 0.00 0.00 0.00 70 1018.0
20260503034311 53 355 3.0 6.0 0.00 0.00 0.00 70 1017.9
20260503034219 53 346 3.0 6.0 0.00 0.00 0.00 70 1018.0
20260503034125 53 355 3.0 6.0 0.00 0.00 0.00 70 1018.0
20260503034032 53 355 4.0 6.0 0.00 0.00 0.00 70 1017.9
20260503033918 53 348 4.0 6.0 0.00 0.00 0.00 70 1017.9
20260503033826 53 346 3.0 6.0 0.00 0.00 0.00 70 1017.9
20260503033718 53 5 3.0 6.0 0.00 0.00 0.00 70 1017.9
20260503033626 53 344 3.0 5.0 0.00 0.00 0.00 69 1017.9
20260503033556 53 349 3.0 5.0 0.00 0.00 0.00 69 1017.8
20260503033310 53 5 3.0 5.0 0.00 0.00 0.00 69 1017.9
20260503033237 53 338 3.0 5.0 0.00 0.00 0.00 69 1017.8
20260503033109 53 9 3.0 5.0 0.00 0.00 0.00 69 1017.8
20260503033017 53 330 3.0 5.0 0.00 0.00 0.00 69 1017.8
20260503032926 54 342 3.0 5.0 0.00 0.00 0.00 69 1017.8
20260503032812 54 5 3.0 5.0 0.00 0.00 0.00 69 1017.9
20260503032720 54 343 3.0 5.0 0.00 0.00 0.00 69 1017.9
20260503032611 54 5 3.0 5.0 0.00 0.00 0.00 68 1017.8
20260503032519 54 5 2.0 5.0 0.00 0.00 0.00 69 1017.8
20260503032427 54 340 3.0 6.0 0.00 0.00 0.00 69 1017.8
20260503032314 54 339 4.0 9.0 0.00 0.00 0.00 68 1017.8
20260503032222 54 360 4.0 9.0 0.00 0.00 0.00 68 1017.8
20260503032128 54 355 4.0 9.0 0.00 0.00 0.00 68 1017.9
20260503032103 54 327 4.0 9.0 0.00 0.00 0.00 68 1017.8
20260503031815 54 340 3.0 9.0 0.00 0.00 0.00 68 1017.8
20260503031724 54 350 5.0 9.0 0.00 0.00 0.00 68 1017.8
20260503031610 54 355 5.0 9.0 0.00 0.00 0.00 68 1017.8
20260503031522 54 348 4.0 9.0 0.00 0.00 0.00 68 1017.8
20260503031409 54 355 4.0 9.0 0.00 0.00 0.00 67 1017.8
20260503031317 54 346 4.0 9.0 0.00 0.00 0.00 67 1017.8
20260503031224 54 5 5.0 9.0 0.00 0.00 0.00 67 1017.8
20260503031131 54 340 5.0 9.0 0.00 0.00 0.00 67 1017.8
20260503031037 54 355 5.0 9.0 0.00 0.00 0.00 67 1017.7
20260503030923 54 319 5.0 8.0 0.00 0.00 0.00 67 1017.7
20260503030814 54 347 4.0 8.0 0.00 0.00 0.00 67 1017.8
20260503030723 54 331 3.0 8.0 0.00 0.00 0.00 67 1017.8
20260503030650 54 351 3.0 8.0 0.00 0.00 0.00 67 1017.8
20260503030600 54 342 3.0 8.0 0.00 0.00 0.00 66 1017.7
20260503030334 55 325 4.0 8.0 0.00 0.00 0.00 66 1017.8
20260503030240 55 346 5.0 8.0 0.00 0.00 0.00 66 1017.7
20260503030110 55 339 5.0 8.0 0.00 0.00 0.00 66 1017.7
20260503030037 55 355 4.0 8.0 0.00 0.00 0.00 66 1017.7
20260503025924 55 329 4.0 9.0 0.00 0.00 0.00 66 1017.7
20260503025810 55 360 4.0 11.0 0.00 0.00 0.00 66 1017.7
20260503025718 55 337 5.0 11.0 0.00 0.00 0.00 66 1017.7
20260503025610 55 340 4.0 11.0 0.00 0.00 0.00 66 1017.7
20260503025518 55 13 4.0 11.0 0.00 0.00 0.00 65 1017.7
20260503025425 55 12 4.0 11.0 0.00 0.00 0.00 66 1017.7
20260503025312 55 335 4.0 11.0 0.00 0.00 0.00 65 1017.7
20260503025219 55 355 4.0 11.0 0.00 0.00 0.00 65 1017.6
20260503025124 55 355 5.0 11.0 0.00 0.00 0.00 65 1017.6
20260503025059 55 13 5.0 10.0 0.00 0.00 0.00 65 1017.6
20260503024813 55 342 6.0 10.0 0.00 0.00 0.00 65 1017.5
20260503024740 55 5 7.0 10.0 0.00 0.00 0.00 65 1017.6
20260503024646 55 5 6.0 10.0 0.00 0.00 0.00 65 1017.6
20260503024512 55 36 5.0 10.0 0.00 0.00 0.00 65 1017.5
20260503024419 55 13 6.0 10.0 0.00 0.00 0.00 64 1017.6
20260503024309 55 15 6.0 10.0 0.00 0.00 0.00 64 1017.5
20260503024217 55 5 6.0 10.0 0.00 0.00 0.00 65 1017.5
20260503024126 55 360 6.0 10.0 0.00 0.00 0.00 64 1017.5
20260503024013 55 16 6.0 11.0 0.00 0.00 0.00 64 1017.6
20260503023941 55 360 7.0 11.0 0.00 0.00 0.00 64 1017.6
20260503023812 55 38 6.0 11.0 0.00 0.00 0.00 64 1017.5
20260503023718 56 28 5.0 11.0 0.00 0.00 0.00 64 1017.5
20260503023647 56 345 6.0 12.0 0.00 0.00 0.00 64 1017.5
20260503023617 56 355 8.0 12.0 0.00 0.00 0.00 64 1017.5
20260503023308 56 10 8.0 12.0 0.00 0.00 0.00 64 1017.4
20260503023221 56 5 7.0 12.0 0.00 0.00 0.00 64 1017.4
20260503023110 56 355 6.0 12.0 0.00 0.00 0.00 64 1017.4
20260503023017 56 349 6.0 12.0 0.00 0.00 0.00 64 1017.4
20260503022924 56 355 7.0 12.0 0.00 0.00 0.00 64 1017.4
20260503022812 56 13 7.0 12.0 0.00 0.00 0.00 64 1017.2
20260503022720 56 13 7.0 12.0 0.00 0.00 0.00 64 1017.2
20260503022610 56 355 8.0 12.0 0.00 0.00 0.00 64 1017.2
20260503022519 56 360 8.0 12.0 0.00 0.00 0.00 64 1017.2
20260503022427 56 15 7.0 12.0 0.00 0.00 0.00 64 1017.2
20260503022316 56 360 7.0 12.0 0.00 0.00 0.00 64 1017.1
20260503022223 56 10 7.0 12.0 0.00 0.00 0.00 64 1017.1
20260503022116 56 346 8.0 12.0 0.00 0.00 0.00 64 1017.2
20260503022045 56 5 8.0 12.0 0.00 0.00 0.00 64 1017.2
20260503021818 56 15 8.0 12.0 0.00 0.00 0.00 64 1017.1
20260503021746 56 5 7.0 14.0 0.00 0.00 0.00 64 1017.1
20260503021611 56 11 8.0 15.0 0.00 0.00 0.00 64 1017.2
20260503021524 56 5 7.0 18.0 0.00 0.00 0.00 64 1017.2
20260503021411 56 360 7.0 18.0 0.00 0.00 0.00 64 1017.2
20260503021320 56 355 8.0 18.0 0.00 0.00 0.00 63 1017.2
20260503021227 56 5 8.0 18.0 0.00 0.00 0.00 63 1017.1
20260503021115 56 25 8.0 18.0 0.00 0.00 0.00 63 1017.1
20260503021027 56 360 9.0 18.0 0.00 0.00 0.00 63 1017.1
20260503020934 57 15 10.0 18.0 0.00 0.00 0.00 63 1017.0
20260503020821 57 21 12.0 18.0 0.00 0.00 0.00 63 1017.0
20260503020728 57 360 10.0 18.0 0.00 0.00 0.00 63 1017.0
20260503020636 57 351 8.0 16.0 0.00 0.00 0.00 63 1017.0
20260503020549 57 338 7.0 16.0 0.00 0.00 0.00 62 1017.0
20260503020341 57 360 7.0 16.0 0.00 0.00 0.00 62 1017.0
20260503020227 57 355 9.0 16.0 0.00 0.00 0.00 62 1017.0
20260503020114 57 346 10.0 16.0 0.00 0.00 0.00 62 1016.9
20260503020021 57 333 10.0 17.0 0.00 0.00 0.00 61 1016.9
20260503015908 57 360 11.0 17.0 0.00 0.00 0.00 61 1016.9
20260503015821 57 355 10.0 17.0 0.00 0.00 0.00 61 1016.9
20260503015729 57 13 10.0 17.0 0.00 0.00 0.00 61 1016.9
20260503015615 57 12 10.0 17.0 0.00 0.00 0.00 60 1016.8
20260503015542 57 360 10.0 17.0 0.00 0.00 0.00 60 1016.8
20260503015408 58 348 10.0 17.0 0.00 0.00 0.00 60 1016.8
20260503015317 58 9 11.0 17.0 0.00 0.00 0.00 60 1016.7
20260503015228 58 350 9.0 17.0 0.00 0.00 0.00 59 1016.7
20260503015136 58 5 5.0 11.0 0.00 0.00 0.00 59 1016.6
20260503015044 58 324 4.0 6.0 0.00 0.00 0.00 59 1016.6
20260503014816 58 346 4.0 6.0 0.00 0.00 0.00 58 1016.4
20260503014724 58 360 4.0 5.0 0.00 0.00 0.00 58 1016.4
20260503014635 58 321 3.0 4.0 0.00 0.00 0.00 58 1016.3
20260503014520 58 331 3.0 4.0 0.00 0.00 0.00 58 1016.3
20260503014428 58 325 2.0 4.0 0.00 0.00 0.00 58 1016.3
20260503014315 58 313 2.0 4.0 0.00 0.00 0.00 58 1016.3
20260503014223 58 315 2.0 4.0 0.00 0.00 0.00 58 1016.3
20260503014110 58 311 2.0 3.0 0.00 0.00 0.00 57 1016.2
20260503014021 58 313 2.0 3.0 0.00 0.00 0.00 57 1016.2
20260503013909 58 339 2.0 3.0 0.00 0.00 0.00 57 1016.2
20260503013835 58 342 2.0 3.0 0.00 0.00 0.00 57 1016.2
20260503013721 58 340 2.0 3.0 0.00 0.00 0.00 56 1016.2
20260503013630 59 350 2.0 3.0 0.00 0.00 0.00 56 1016.1
20260503013545 58 334 2.0 3.0 0.00 0.00 0.00 56 1016.1
20260503013320 59 355 2.0 3.0 0.00 0.00 0.00 56 1016.0
20260503013247 59 346 2.0 3.0 0.00 0.00 0.00 56 1016.0
20260503013115 59 331 1.0 3.0 0.00 0.00 0.00 56 1016.0
20260503013023 59 334 2.0 3.0 0.00 0.00 0.00 55 1016.0
20260503012911 59 327 1.0 3.0 0.00 0.00 0.00 55 1016.0
20260503012823 59 327 2.0 3.0 0.00 0.00 0.00 55 1016.0
20260503012710 59 338 2.0 4.0 0.00 0.00 0.00 55 1015.9
20260503012619 59 344 2.0 4.0 0.00 0.00 0.00 55 1015.9
20260503012527 59 329 2.0 4.0 0.00 0.00 0.00 55 1015.9
20260503012434 59 332 2.0 4.0 0.00 0.00 0.00 54 1015.9
20260503012320 59 323 2.0 5.0 0.00 0.00 0.00 54 1015.9
20260503012210 59 342 3.0 5.0 0.00 0.00 0.00 54 1015.9
20260503012118 59 340 3.0 5.0 0.00 0.00 0.00 54 1015.9
20260503012048 59 340 3.0 5.0 0.00 0.00 0.00 54 1015.9
20260503011821 60 332 2.0 5.0 0.00 0.00 0.00 54 1015.9
20260503011713 60 341 2.0 5.0 0.00 0.00 0.00 54 1015.8
20260503011622 60 349 3.0 5.0 0.00 0.00 0.00 53 1015.8
20260503011509 60 350 3.0 5.0 0.00 0.00 0.00 53 1015.9
20260503011437 60 351 3.0 5.0 0.00 0.00 0.00 53 1015.9
20260503011324 60 339 3.0 5.0 0.00 0.00 0.00 53 1015.9
20260503011212 60 334 3.0 5.0 0.00 0.00 0.00 52 1015.7
20260503011140 60 346 3.0 5.0 0.00 0.00 0.00 52 1015.9
20260503011009 60 336 2.0 5.0 0.00 0.00 0.00 52 1015.7
20260503010917 60 347 3.0 5.0 0.00 0.00 0.00 52 1015.7
20260503010824 60 327 3.0 5.0 0.00 0.00 0.00 52 1015.7
20260503010711 60 351 3.0 5.0 0.00 0.00 0.00 52 1015.6
20260503010619 60 5 3.0 6.0 0.00 0.00 0.00 52 1015.6
20260503010553 60 5 3.0 8.0 0.00 0.00 0.00 51 1015.6
20260503010346 61 337 3.0 9.0 0.00 0.00 0.00 52 1015.6
20260503010212 61 5 4.0 9.0 0.00 0.00 0.00 51 1015.6
20260503010141 61 349 4.0 9.0 0.00 0.00 0.00 51 1015.6
20260503010027 61 326 4.0 9.0 0.00 0.00 0.00 51 1015.6
20260503005934 61 347 4.0 9.0 0.00 0.00 0.00 51 1015.6
20260503005845 61 342 5.0 9.0 0.00 0.00 0.00 50 1015.6
20260503005711 61 29 6.0 10.0 0.00 0.00 0.00 50 1015.6
20260503005620 61 333 6.0 10.0 0.00 0.00 0.00 50 1015.6
20260503005527 61 344 5.0 10.0 0.00 0.00 0.00 50 1015.5
20260503005414 61 317 4.0 10.0 0.00 0.00 0.00 50 1015.6
20260503005321 61 331 5.0 11.0 0.00 0.00 0.00 49 1015.6
20260503005212 62 342 6.0 11.0 0.00 0.00 0.00 49 1015.5
20260503005119 62 335 7.0 11.0 0.00 0.00 0.00 49 1015.6
20260503005049 62 343 7.0 13.0 0.00 0.00 0.00 49 1015.6
20260503004824 62 346 8.0 13.0 0.00 0.00 0.00 49 1015.5
20260503004714 62 335 8.0 13.0 0.00 0.00 0.00 48 1015.5
20260503004641 62 341 8.0 13.0 0.00 0.00 0.00 48 1015.5
20260503004509 62 355 7.0 15.0 0.00 0.00 0.00 48 1015.5
20260503004416 62 350 6.0 15.0 0.00 0.00 0.00 48 1015.4
20260503004324 62 345 7.0 15.0 0.00 0.00 0.00 47 1015.4
20260503004213 62 339 9.0 15.0 0.00 0.00 0.00 47 1015.5
20260503004123 63 329 8.0 15.0 0.00 0.00 0.00 47 1015.5
20260503004012 63 346 7.0 15.0 0.00 0.00 0.00 46 1015.5
20260503003919 63 9 6.0 15.0 0.00 0.00 0.00 46 1015.4
20260503003826 63 355 7.0 15.0 0.00 0.00 0.00 45 1015.4
20260503003715 63 11 7.0 15.0 0.00 0.00 0.00 45 1015.5
20260503003626 63 39 7.0 12.0 0.00 0.00 0.00 45 1015.5
20260503003556 63 5 7.0 12.0 0.00 0.00 0.00 44 1015.5
20260503003310 63 340 8.0 12.0 0.00 0.00 0.00 44 1015.4
20260503003217 63 348 8.0 12.0 0.00 0.00 0.00 44 1015.4
20260503003143 63 347 9.0 12.0 0.00 0.00 0.00 44 1015.4
20260503003012 63 335 6.0 12.0 0.00 0.00 0.00 43 1015.3
20260503002919 63 339 5.0 14.0 0.00 0.00 0.00 43 1015.2
20260503002826 63 322 5.0 14.0 0.00 0.00 0.00 43 1015.2
20260503002713 63 317 5.0 14.0 0.00 0.00 0.00 43 1015.3
20260503002620 63 306 5.0 14.0 0.00 0.00 0.00 43 1015.3
20260503002548 63 331 7.0 14.0 0.00 0.00 0.00 43 1015.1
20260503002417 63 333 7.0 14.0 0.00 0.00 0.00 43 1015.1
20260503002326 64 346 6.0 14.0 0.00 0.00 0.00 43 1015.1
20260503002213 64 355 6.0 14.0 0.00 0.00 0.00 42 1015.0
20260503002120 64 318 7.0 14.0 0.00 0.00 0.00 42 1015.0
20260503002053 64 321 7.0 14.0 0.00 0.00 0.00 42 1015.1
20260503001827 64 281 8.0 14.0 0.00 0.00 0.00 42 1015.0
20260503001734 64 309 9.0 14.0 0.00 0.00 0.00 42 1015.0
20260503001622 64 325 8.0 14.0 0.00 0.00 0.00 42 1015.0
20260503001530 64 309 7.0 14.0 0.00 0.00 0.00 42 1015.0
20260503001417 64 316 8.0 13.0 0.00 0.00 0.00 42 1015.0
20260503001344 64 269 8.0 13.0 0.00 0.00 0.00 42 1015.0
20260503001214 64 355 5.0 12.0 0.00 0.00 0.00 42 1014.9
20260503001122 64 336 5.0 12.0 0.00 0.00 0.00 42 1014.9
20260503001029 64 340 6.0 12.0 0.00 0.00 0.00 42 1014.9
20260503000936 64 344 5.0 12.0 0.00 0.00 0.00 42 1014.9
20260503000822 64 271 5.0 12.0 0.00 0.00 0.00 42 1014.9
20260503000749 64 298 5.0 9.0 0.00 0.00 0.00 42 1014.9
20260503000616 64 317 5.0 10.0 0.00 0.00 0.00 42 1014.8
20260503000550 65 327 5.0 10.0 0.00 0.00 0.00 42 1014.8
20260503000323 65 292 6.0 11.0 0.00 0.00 0.00 42 1014.9
20260503000211 65 320 5.0 11.0 0.00 0.00 0.00 42 1014.9
20260503000118 65 286 4.0 13.0 0.00 0.00 0.00 42 1014.9
20260503000009 65 313 4.0 13.0 0.00 0.00 0.00 41 1014.8
20260502235917 65 323 4.0 13.0 0.00 0.00 0.00 41 1014.8
20260502235844 65 302 4.0 13.0 0.00 0.00 0.00 41 1014.8
20260502235710 65 323 6.0 13.0 0.00 0.00 0.00 40 1014.8
20260502235638 65 320 7.0 13.0 0.00 0.00 0.00 40 1014.7
20260502235525 65 327 6.0 13.0 0.00 0.00 0.00 40 1014.7
20260502235416 65 302 6.0 13.0 0.00 0.00 0.00 40 1014.8
20260502235323 65 343 7.0 13.0 0.00 0.00 0.00 40 1014.8
20260502235211 65 341 7.0 13.0 0.00 0.00 0.00 40 1014.8
20260502235119 65 343 7.0 12.0 0.00 0.00 0.00 40 1014.8
20260502235051 66 328 7.0 12.0 0.00 0.00 0.00 40 1014.8
20260502234827 66 285 8.0 12.0 0.00 0.00 0.00 39 1014.7
20260502234735 66 302 8.0 12.0 0.00 0.00 0.00 40 1014.7
20260502234622 66 294 8.0 12.0 0.00 0.00 0.00 40 1014.7
20260502234509 66 315 9.0 12.0 0.00 0.00 0.00 40 1014.6
20260502234416 66 323 9.0 12.0 0.00 0.00 0.00 40 1014.6
20260502234324 66 317 9.0 14.0 0.00 0.00 0.00 40 1014.6
20260502234216 66 323 8.0 14.0 0.00 0.00 0.00 40 1014.7
20260502234124 66 321 7.0 14.0 0.00 0.00 0.00 40 1014.7
20260502234012 66 312 6.0 14.0 0.00 0.00 0.00 40 1014.6
20260502233919 66 336 6.0 14.0 0.00 0.00 0.00 40 1014.6
20260502233827 66 331 6.0 14.0 0.00 0.00 0.00 40 1014.6
20260502233719 66 320 7.0 14.0 0.00 0.00 0.00 40 1014.6
20260502233626 66 313 8.0 14.0 0.00 0.00 0.00 40 1014.6
20260502233556 66 299 8.0 13.0 0.00 0.00 0.00 40 1014.5
20260502233310 66 314 6.0 13.0 0.00 0.00 0.00 40 1014.6
20260502233220 66 292 6.0 13.0 0.00 0.00 0.00 40 1014.6
20260502233127 66 307 7.0 13.0 0.00 0.00 0.00 41 1014.6
20260502233015 66 317 9.0 13.0 0.00 0.00 0.00 40 1014.5
20260502232922 66 311 8.0 13.0 0.00 0.00 0.00 40 1014.5
20260502232809 66 325 7.0 11.0 0.00 0.00 0.00 41 1014.6
20260502232718 66 319 7.0 11.0 0.00 0.00 0.00 40 1014.5
20260502232610 66 321 7.0 11.0 0.00 0.00 0.00 40 1014.5
20260502232517 66 275 8.0 11.0 0.00 0.00 0.00 40 1014.5
20260502232445 66 324 6.0 11.0 0.00 0.00 0.00 41 1014.5
20260502232310 66 312 5.0 11.0 0.00 0.00 0.00 40 1014.5
20260502232217 66 327 5.0 11.0 0.00 0.00 0.00 40 1014.4
20260502232123 66 288 6.0 11.0 0.00 0.00 0.00 40 1014.4
20260502232058 66 315 5.0 11.0 0.00 0.00 0.00 40 1014.4
20260502231812 66 317 4.0 12.0 0.00 0.00 0.00 40 1014.3
20260502231720 66 315 5.0 12.0 0.00 0.00 0.00 39 1014.3
20260502231627 66 300 6.0 12.0 0.00 0.00 0.00 39 1014.4
20260502231518 66 284 6.0 12.0 0.00 0.00 0.00 39 1014.5
20260502231424 66 302 6.0 12.0 0.00 0.00 0.00 40 1014.5
20260502231330 66 307 5.0 12.0 0.00 0.00 0.00 39 1014.5
20260502231235 66 329 7.0 12.0 0.00 0.00 0.00 39 1014.5
20260502231121 66 332 8.0 12.0 0.00 0.00 0.00 38 1014.5
20260502231010 66 338 8.0 12.0 0.00 0.00 0.00 38 1014.4
20260502230922 67 325 7.0 12.0 0.00 0.00 0.00 38 1014.4
20260502230848 67 286 5.0 11.0 0.00 0.00 0.00 39 1014.4
20260502230715 67 300 4.0 11.0 0.00 0.00 0.00 38 1014.5
20260502230623 67 344 4.0 11.0 0.00 0.00 0.00 38 1014.5
20260502230554 67 342 4.0 11.0 0.00 0.00 0.00 38 1014.5
20260502230332 67 355 6.0 11.0 0.00 0.00 0.00 37 1014.4
20260502230219 67 303 8.0 11.0 0.00 0.00 0.00 36 1014.4
20260502230147 67 281 8.0 11.0 0.00 0.00 0.00 36 1014.4
20260502230012 67 302 7.0 11.0 0.00 0.00 0.00 36 1014.4
20260502225920 67 257 7.0 10.0 0.00 0.00 0.00 36 1014.4
20260502225809 68 360 6.0 12.0 0.00 0.00 0.00 36 1014.5
20260502225721 68 297 6.0 12.0 0.00 0.00 0.00 36 1014.5
20260502225628 68 332 6.0 12.0 0.00 0.00 0.00 36 1014.5
20260502225515 68 328 7.0 12.0 0.00 0.00 0.00 36 1014.5
20260502225422 68 318 7.0 12.0 0.00 0.00 0.00 36 1014.5
20260502225309 68 272 5.0 12.0 0.00 0.00 0.00 36 1014.5
20260502225217 68 303 6.0 12.0 0.00 0.00 0.00 36 1014.5
20260502225128 68 307 7.0 12.0 0.00 0.00 0.00 35 1014.5
20260502225058 69 323 7.0 13.0 0.00 0.00 0.00 35 1014.4
20260502224811 69 293 7.0 13.0 0.00 0.00 0.00 35 1014.4
20260502224739 69 286 8.0 13.0 0.00 0.00 0.00 36 1014.4
20260502224610 69 333 7.0 13.0 0.00 0.00 0.00 35 1014.4
20260502224517 69 355 6.0 13.0 0.00 0.00 0.00 35 1014.4
20260502224425 69 317 7.0 13.0 0.00 0.00 0.00 35 1014.4
20260502224311 69 323 9.0 16.0 0.00 0.00 0.00 34 1014.5
20260502224219 69 306 8.0 16.0 0.00 0.00 0.00 35 1014.4
20260502224126 69 344 6.0 16.0 0.00 0.00 0.00 36 1014.4
20260502224016 69 324 4.0 16.0 0.00 0.00 0.00 35 1014.4
20260502223924 69 286 4.0 16.0 0.00 0.00 0.00 35 1014.4
20260502223811 69 360 5.0 16.0 0.00 0.00 0.00 35 1014.3
20260502223719 69 311 8.0 16.0 0.00 0.00 0.00 35 1014.3
20260502223648 69 272 10.0 16.0 0.00 0.00 0.00 35 1014.3
20260502223601 69 271 11.0 16.0 0.00 0.00 0.00 35 1014.3
20260502223314 69 340 9.0 15.0 0.00 0.00 0.00 35 1014.3
20260502223222 69 326 9.0 15.0 0.00 0.00 0.00 35 1014.3
20260502223109 69 326 9.0 15.0 0.00 0.00 0.00 34 1014.3
20260502223016 69 345 9.0 15.0 0.00 0.00 0.00 34 1014.4
20260502222923 69 333 8.0 15.0 0.00 0.00 0.00 35 1014.4
20260502222814 69 316 8.0 15.0 0.00 0.00 0.00 35 1014.3
20260502222720 69 313 10.0 15.0 0.00 0.00 0.00 35 1014.3
20260502222627 69 322 11.0 15.0 0.00 0.00 0.00 35 1014.4
20260502222514 69 317 10.0 15.0 0.00 0.00 0.00 35 1014.3
20260502222421 69 277 9.0 15.0 0.00 0.00 0.00 35 1014.3
20260502222333 69 300 9.0 15.0 0.00 0.00 0.00 35 1014.3
20260502222219 69 249 9.0 15.0 0.00 0.00 0.00 35 1014.2
20260502222146 69 271 8.0 14.0 0.00 0.00 0.00 36 1014.2
20260502222055 69 294 7.0 14.0 0.00 0.00 0.00 36 1014.3
20260502221808 69 250 7.0 14.0 0.00 0.00 0.00 36 1014.3
20260502221719 69 300 8.0 14.0 0.00 0.00 0.00 35 1014.4
20260502221626 69 302 6.0 14.0 0.00 0.00 0.00 36 1014.4
20260502221513 69 338 6.0 14.0 0.00 0.00 0.00 36 1014.4
20260502221419 69 264 7.0 16.0 0.00 0.00 0.00 36 1014.4
20260502221327 69 288 8.0 16.0 0.00 0.00 0.00 35 1014.3
20260502221213 69 304 8.0 16.0 0.00 0.00 0.00 35 1014.3
20260502221124 69 285 9.0 19.0 0.00 0.00 0.00 35 1014.3
20260502221011 69 311 9.0 19.0 0.00 0.00 0.00 35 1014.4
20260502220918 69 297 7.0 19.0 0.00 0.00 0.00 35 1014.3
20260502220825 69 302 7.0 19.0 0.00 0.00 0.00 35 1014.3
20260502220712 69 310 9.0 19.0 0.00 0.00 0.00 35 1014.4
20260502220620 69 324 9.0 19.0 0.00 0.00 0.00 35 1014.4
20260502220554 70 306 10.0 19.0 0.00 0.00 0.00 35 1014.3
20260502220327 70 334 10.0 19.0 0.00 0.00 0.00 35 1014.3
20260502220234 70 348 9.0 15.0 0.00 0.00 0.00 34 1014.3
20260502220120 69 310 7.0 15.0 0.00 0.00 0.00 35 1014.3
20260502220011 69 284 6.0 15.0 0.00 0.00 0.00 36 1014.3
20260502215920 69 321 8.0 15.0 0.00 0.00 0.00 36 1014.3
20260502215826 69 5 7.0 15.0 0.00 0.00 0.00 35 1014.2
20260502215715 69 320 7.0 15.0 0.00 0.00 0.00 35 1014.3
20260502215623 69 293 8.0 15.0 0.00 0.00 0.00 34 1014.3
20260502215531 69 271 7.0 15.0 0.00 0.00 0.00 36 1014.3
20260502215436 69 347 5.0 14.0 0.00 0.00 0.00 35 1014.2
20260502215328 69 286 5.0 14.0 0.00 0.00 0.00 36 1014.2
20260502215235 69 311 5.0 14.0 0.00 0.00 0.00 36 1014.3
20260502215203 69 308 7.0 14.0 0.00 0.00 0.00 36 1014.2
20260502215112 69 290 8.0 14.0 0.00 0.00 0.00 36 1014.3
20260502214825 69 329 10.0 14.0 0.00 0.00 0.00 37 1014.3
20260502214715 69 331 10.0 14.0 0.00 0.00 0.00 37 1014.2
20260502214623 69 5 7.0 13.0 0.00 0.00 0.00 36 1014.2
20260502214529 68 316 8.0 13.0 0.00 0.00 0.00 37 1014.1
20260502214416 68 331 10.0 13.0 0.00 0.00 0.00 37 1014.2
20260502214323 68 340 10.0 13.0 0.00 0.00 0.00 36 1014.2
20260502214210 68 335 10.0 16.0 0.00 0.00 0.00 36 1014.1
20260502214120 68 318 8.0 16.0 0.00 0.00 0.00 37 1014.1
20260502214027 68 317 6.0 16.0 0.00 0.00 0.00 37 1014.1
20260502213934 68 337 6.0 16.0 0.00 0.00 0.00 38 1014.1
20260502213820 68 323 7.0 16.0 0.00 0.00 0.00 37 1014.1
20260502213748 68 344 9.0 16.0 0.00 0.00 0.00 37 1014.2
20260502213615 68 316 10.0 16.0 0.00 0.00 0.00 36 1014.1
20260502213550 68 314 11.0 16.0 0.00 0.00 0.00 36 1014.1
20260502213324 68 360 10.0 16.0 0.00 0.00 0.00 35 1014.1
20260502213211 69 300 10.0 16.0 0.00 0.00 0.00 36 1014.1
20260502213140 69 301 11.0 16.0 0.00 0.00 0.00 36 1014.1
20260502213025 69 341 11.0 16.0 0.00 0.00 0.00 36 1014.1
20260502212918 69 291 7.0 14.0 0.00 0.00 0.00 35 1014.0
20260502212825 69 360 6.0 14.0 0.00 0.00 0.00 35 1014.0
20260502212711 70 360 8.0 15.0 0.00 0.00 0.00 35 1014.0
20260502212619 70 313 7.0 15.0 0.00 0.00 0.00 35 1014.0
20260502212528 70 271 5.0 15.0 0.00 0.00 0.00 36 1014.0
20260502212435 70 234 5.0 15.0 0.00 0.00 0.00 36 1014.0
20260502212325 70 245 7.0 15.0 0.00 0.00 0.00 36 1014.0
20260502212212 70 331 10.0 15.0 0.00 0.00 0.00 37 1014.0
20260502212120 70 5 11.0 15.0 0.00 0.00 0.00 36 1014.0
20260502212050 70 360 11.0 16.0 0.00 0.00 0.00 36 1014.0
20260502211828 69 309 10.0 16.0 0.00 0.00 0.00 36 1014.1
20260502211715 69 338 10.0 16.0 0.00 0.00 0.00 35 1014.1
20260502211623 69 308 10.0 16.0 0.00 0.00 0.00 35 1014.1
20260502211512 69 337 10.0 16.0 0.00 0.00 0.00 35 1014.1
20260502211419 69 329 12.0 16.0 0.00 0.00 0.00 35 1014.2
20260502211310 69 355 11.0 16.0 0.00 0.00 0.00 35 1014.2
20260502211217 69 351 10.0 16.0 0.00 0.00 0.00 35 1014.2
20260502211122 69 290 10.0 16.0 0.00 0.00 0.00 36 1014.2
20260502211009 69 338 11.0 16.0 0.00 0.00 0.00 37 1014.2
20260502210917 69 328 11.0 16.0 0.00 0.00 0.00 38 1014.3
20260502210825 69 309 10.0 15.0 0.00 0.00 0.00 38 1014.3
20260502210716 69 21 10.0 15.0 0.00 0.00 0.00 38 1014.2
20260502210643 69 25 10.0 15.0 0.00 0.00 0.00 38 1014.2
20260502210553 69 355 10.0 17.0 0.00 0.00 0.00 37 1014.3